Weather History for Toledo, OH

Change the Weather History Date:

Saturday, September 21, 2013

  Actual Average Record
Temperature  
Mean Temperature 61 °F 62 °F  
Max Temperature 71 °F 73 °F 93 °F (1970)
Min Temperature 51 °F 51 °F 30 °F (1962)
Degree Days  
Heating Degree Days 4 5  
Month to date heating degree days 59 52  
Since 1 July heating degree days 88 66  
Cooling Degree Days 0 2  
Month to date cooling degree days 90 71  
Year to date cooling degree days 772 773  
Growing Degree Days 13 (Base 50)    
Moisture  
Dew Point 56 °F    
Average Humidity 73    
Maximum Humidity 100    
Minimum Humidity 45    
Precipitation  
Precipitation 0.21 in 0.10 in 1.25 in (1992)
Month to date precipitation 1.67 1.98  
Year to date precipitation 28.46 25.30  
Snow  
Snow 0.00 in 0.00 in - ()
Month to date snowfall 0.0 0.0  
Since 1 July snowfall 0.0 0.0  
Since 1 September snowfall 0.0 0.0  
Snow Depth 0.00 in    
Sea Level Pressure  
Sea Level Pressure 29.76 in    
Wind  
Wind Speed 9 mph (WNW)    
Max Wind Speed 21 mph    
Max Gust Speed 28 mph    
Visibility 9 miles    
Events Rain    
T = Trace of Precipitation, MM = Missing Value Source: NWS Daily Summary

Daily Weather History Graph

Daily Weather History Graph

Search for Another Location

Airport:

Trip Planner

Search our weather history database for the weather conditions in past years. The results will help you decide how hot, cold, wet, or windy it might be!

Date:

Astronomy

Sep. 21, 2013 Rise Set
Actual Time 7:21 AM EDT 7:33 PM EDT
Civil Twilight 6:54 AM EDT 8:01 PM EDT
Nautical Twilight 6:21 AM EDT 8:33 PM EDT
Astronomical Twilight 5:48 AM EDT 9:06 PM EDT
Moon 8:41 PM EDT (9/21) 9:41 AM EDT (9/21)
Length of Visible Light 13h 07m
Length of Day
12h 11m
Waning Gibbous, 94% of the Moon is Illuminated
Sep 21
Waning Gibbous
Sep 26
Last Quarter
Oct 4
New
Oct 11
First Quarter
Oct 18
Full

Hourly Weather History & Observations

Time (EDT) Temp. Dew Point Humidity Pressure Visibility Wind Dir Wind Speed Gust Speed Precip Events Conditions
12:04 AM 68.0 °F 66.2 °F 94% 29.75 in 4.0 mi SW 9.2 mph - 0.02 in Rain Rain
12:13 AM 68.0 °F 66.2 °F 94% 29.75 in 5.0 mi WSW 10.4 mph - 0.04 in Rain Light Rain
12:24 AM 68.0 °F 66.2 °F 94% 29.76 in 5.0 mi West 11.5 mph - 0.05 in Rain Light Rain
12:41 AM 66.2 °F 64.4 °F 94% 29.76 in 7.0 mi WNW 9.2 mph - 0.07 in Rain Light Rain
12:52 AM 66.0 °F 64.0 °F 93% 29.75 in 6.0 mi West 8.1 mph - 0.09 in Rain Light Rain
1:34 AM 66.2 °F 64.4 °F 94% 29.75 in 2.5 mi SW 5.8 mph - 0.10 in Rain Rain
1:38 AM 64.4 °F 64.4 °F 100% 29.75 in 3.0 mi SW 5.8 mph - 0.11 in Rain Rain
1:45 AM 64.4 °F 64.4 °F 100% 29.75 in 2.5 mi SW 4.6 mph - 0.14 in Rain Rain
1:52 AM 64.9 °F 64.0 °F 97% 29.74 in 3.0 mi SW 5.8 mph - 0.15 in Rain Rain
2:14 AM 64.4 °F 64.4 °F 100% 29.74 in 6.0 mi West 8.1 mph - 0.04 in Rain Light Rain
2:52 AM 64.9 °F 64.0 °F 97% 29.73 in 8.0 mi West 5.8 mph - 0.04 in Rain Light Rain
3:52 AM 64.0 °F 63.0 °F 96% 29.71 in 9.0 mi West 4.6 mph - 0.03 in Rain Light Rain
4:52 AM 64.0 °F 62.1 °F 93% 29.70 in 10.0 mi West 6.9 mph - 0.00 in   Overcast
5:32 AM 62.6 °F 57.2 °F 82% 29.72 in 10.0 mi WNW 10.4 mph - N/A   Overcast
5:49 AM 62.6 °F 57.2 °F 82% 29.71 in 10.0 mi NW 6.9 mph - N/A   Overcast
5:52 AM 61.0 °F 57.9 °F 90% 29.70 in 10.0 mi NW 6.9 mph - N/A   Overcast
6:52 AM 61.0 °F 57.9 °F 90% 29.71 in 10.0 mi WNW 8.1 mph - N/A   Overcast
7:52 AM 60.1 °F 57.9 °F 93% 29.72 in 10.0 mi West 6.9 mph - N/A   Partly Cloudy
8:52 AM 59.0 °F 57.9 °F 96% 29.73 in 10.0 mi West 9.2 mph - N/A   Clear
9:48 AM 60.8 °F 57.2 °F 88% 29.75 in 10.0 mi WNW 9.2 mph - N/A   Mostly Cloudy
9:52 AM 60.1 °F 57.0 °F 90% 29.74 in 10.0 mi WNW 8.1 mph - N/A   Scattered Clouds
10:01 AM 60.8 °F 57.2 °F 88% 29.75 in 10.0 mi WNW 9.2 mph - N/A   Mostly Cloudy
10:52 AM 62.1 °F 57.0 °F 84% 29.74 in 10.0 mi WNW 11.5 mph - N/A   Mostly Cloudy
11:30 AM 64.4 °F 53.6 °F 68% 29.75 in 10.0 mi NW 13.8 mph 20.7 mph N/A   Overcast
11:44 AM 64.4 °F 53.6 °F 68% 29.75 in 10.0 mi NNW 13.8 mph 20.7 mph N/A   Mostly Cloudy
11:52 AM 64.9 °F 54.0 °F 68% 29.74 in 10.0 mi NNW 11.5 mph 20.7 mph N/A   Mostly Cloudy
12:32 PM 64.4 °F 53.6 °F 68% 29.75 in 10.0 mi NW 10.4 mph - N/A   Mostly Cloudy
12:52 PM 66.0 °F 52.0 °F 60% 29.75 in 10.0 mi NNW 13.8 mph 21.9 mph N/A   Scattered Clouds
1:52 PM 66.9 °F 52.0 °F 59% 29.75 in 10.0 mi NNW 15.0 mph 21.9 mph N/A   Mostly Cloudy
2:52 PM 70.0 °F 50.0 °F 49% 29.74 in 10.0 mi NW 15.0 mph 23.0 mph N/A   Partly Cloudy
3:52 PM 68.0 °F 46.0 °F 45% 29.75 in 10.0 mi NW 12.7 mph 17.3 mph N/A   Partly Cloudy
4:52 PM 68.0 °F 46.0 °F 45% 29.76 in 10.0 mi WNW 12.7 mph - N/A   Mostly Cloudy
5:52 PM 66.9 °F 44.1 °F 44% 29.78 in 10.0 mi WNW 13.8 mph - N/A   Partly Cloudy
6:52 PM 63.0 °F 45.0 °F 52% 29.79 in 10.0 mi WNW 6.9 mph - N/A   Clear
7:52 PM 62.1 °F 46.0 °F 56% 29.81 in 10.0 mi NW 10.4 mph - N/A   Overcast
8:52 PM 60.1 °F 46.9 °F 62% 29.83 in 10.0 mi NW 11.5 mph 19.6 mph N/A   Scattered Clouds
9:52 PM 55.9 °F 48.0 °F 75% 29.85 in 10.0 mi NW 6.9 mph - N/A   Clear
10:52 PM 55.0 °F 48.0 °F 77% 29.86 in 10.0 mi NW 6.9 mph - N/A   Clear
11:52 PM 53.1 °F 48.0 °F 83% 29.88 in 10.0 mi NW 5.8 mph - N/A   Clear